Weather History for Phoenix, AZ

Change the Weather History Date:

Tuesday, February 5, 2013

  Actual Average Record
Temperature  
Mean Temperature 64 °F 58 °F  
Max Temperature 76 °F 69 °F 87 °F (1963)
Min Temperature 52 °F 47 °F 28 °F (1964)
Degree Days  
Heating Degree Days 1 7  
Month to date heating degree days 12 35  
Since 1 July heating degree days 644 705  
Cooling Degree Days 0 0  
Month to date cooling degree days 2 0  
Year to date cooling degree days 7 2  
Growing Degree Days 14 (Base 50)    
Moisture  
Dew Point 41 °F    
Average Humidity 48    
Maximum Humidity 69    
Minimum Humidity 27    
Precipitation  
Precipitation 0.00 in 0.03 in 0.82 in (1935)
Month to date precipitation T 0.14  
Year to date precipitation 1.39 1.05  
Snow  
Snow 0.00 in - - ()
Month to date snowfall 0.0  
Year to date snowfall 0.0  
Since 1 July snowfall 0.0  
Snow Depth 0.00 in    
Sea Level Pressure  
Sea Level Pressure 29.92 in    
Wind  
Wind Speed 4 mph (ESE)    
Max Wind Speed 10 mph    
Max Gust Speed 15 mph    
Visibility 10 miles    
Events      
T = Trace of Precipitation, MM = Missing Value Source: NWS Daily Summary

Daily Weather History Graph

Daily Weather History Graph

Search for Another Location

Airport:

Trip Planner

Search our weather history database for the weather conditions in past years. The results will help you decide how hot, cold, wet, or windy it might be!

Date:

Astronomy

Feb. 05, 2013 Rise Set
Actual Time 7:20 AM MST 6:03 PM MST
Civil Twilight 6:54 AM MST 6:29 PM MST
Nautical Twilight 6:25 AM MST 6:59 PM MST
Astronomical Twilight 5:56 AM MST 7:28 PM MST
Moon 3:01 AM MST (2/5) 1:30 PM MST (2/5)
Length of Visible Light 11h 34m
Length of Day
10h 43m
Waning Crescent, 26% of the Moon is Illuminated
Feb 5
Waning Crescent
Feb 10
New
Feb 17
First Quarter
Feb 25
Full
Mar 4
Last Quarter

Hourly Weather History & Observations

Time (MST) Temp. Dew Point Humidity Pressure Visibility Wind Dir Wind Speed Gust Speed Precip Events Conditions
12:51 AM 57.9 °F 44.1 °F 60% 29.94 in 10.0 mi East 6.9 mph - N/A   Clear
1:51 AM 57.0 °F 44.1 °F 62% 29.95 in 10.0 mi East 6.9 mph - N/A   Clear
2:51 AM 57.0 °F 44.1 °F 62% 29.94 in 10.0 mi ESE 4.6 mph - N/A   Clear
3:51 AM 55.9 °F 42.1 °F 60% 29.94 in 10.0 mi Calm Calm - N/A   Clear
4:51 AM 55.0 °F 43.0 °F 64% 29.95 in 10.0 mi Calm Calm - N/A   Clear
5:51 AM 54.0 °F 42.1 °F 64% 29.95 in 10.0 mi Calm Calm - N/A   Clear
6:51 AM 52.0 °F 42.1 °F 69% 29.95 in 10.0 mi East 5.8 mph - N/A   Clear
7:51 AM 53.1 °F 39.9 °F 61% 29.98 in 10.0 mi Calm Calm - N/A   Clear
8:51 AM 57.9 °F 39.9 °F 51% 29.99 in 10.0 mi ESE 3.5 mph - N/A   Clear
9:51 AM 61.0 °F 36.0 °F 39% 29.99 in 10.0 mi East 5.8 mph - N/A   Clear
10:51 AM 64.9 °F 41.0 °F 42% 29.99 in 10.0 mi ESE 6.9 mph - N/A   Clear
11:51 AM 66.9 °F 41.0 °F 39% 29.99 in 10.0 mi Calm Calm - N/A   Clear
12:51 PM 70.0 °F 41.0 °F 35% 29.95 in 10.0 mi Calm Calm - N/A   Clear
1:51 PM 72.0 °F 39.9 °F 31% 29.91 in 10.0 mi ENE 3.5 mph - N/A   Clear
2:51 PM 73.9 °F 39.0 °F 28% 29.88 in 10.0 mi SSW 4.6 mph - N/A   Partly Cloudy
3:51 PM 73.9 °F 37.9 °F 27% 29.88 in 10.0 mi WNW 5.8 mph - N/A   Partly Cloudy
4:51 PM 75.0 °F 39.9 °F 28% 29.87 in 10.0 mi Variable 4.6 mph - N/A   Partly Cloudy
5:51 PM 73.0 °F 37.9 °F 28% 29.87 in 10.0 mi West 5.8 mph - N/A   Partly Cloudy
6:51 PM 72.0 °F 37.9 °F 29% 29.87 in 10.0 mi WNW 6.9 mph - N/A   Partly Cloudy
7:51 PM 66.0 °F 42.1 °F 42% 29.87 in 10.0 mi Calm Calm - N/A   Partly Cloudy
8:51 PM 64.9 °F 42.1 °F 43% 29.87 in 10.0 mi SW 3.5 mph - N/A   Clear
9:51 PM 62.1 °F 44.1 °F 52% 29.88 in 10.0 mi Calm Calm - N/A   Clear
10:51 PM 61.0 °F 44.1 °F 54% 29.88 in 10.0 mi East 6.9 mph - N/A   Clear
11:51 PM 57.9 °F 43.0 °F 58% 29.88 in 10.0 mi East 6.9 mph - N/A   Clear